When you browse on this site, cookies collect data to enhance your experience and personalize the content and advertising you see.
Visit our Privacy Policy to learn more. By continuing to use the site, you agree to this use of cookies and data.
  • Em Portugal
  • Lista de países
  • Para 7 dias
  • Temperatura da água
  • Mapas de satélite
  • Mapa do tempo
  • Widgets de tempo
  • user-avatar
    Iniciar Sessão

    Previsão horária em Sieradzice

    Hoje, 25 Março, Segunda-feira

    Tempo Temperatura Precipitação Vento Pressão Humidade
    00:00 +8°C° 0.2 mm 1 m/s 738 mmHg 59%
    01:00 +8°C° 0.2 mm 1 m/s 737 mmHg 63%
    02:00 +7°C° 0.2 mm 1 m/s 737 mmHg 67%
    03:00 +7°C° 0.2 mm 1 m/s 736 mmHg 71%
    04:00 +6°C° 0.2 mm 2 m/s 736 mmHg 75%
    05:00 +6°C° 0.1 mm 2 m/s 736 mmHg 75%
    06:00 +6°C° 0.1 mm 2 m/s 735 mmHg 75%
    07:00 +5°C° 0.1 mm 3 m/s 735 mmHg 76%
    08:00 +5°C° 0.2 mm 3 m/s 735 mmHg 73%
    09:00 +7°C° 0.2 mm 3 m/s 734 mmHg 70%
    10:00 +6°C° 0.2 mm 4 m/s 734 mmHg 67%
    11:00 +7°C° 0.3 mm 4 m/s 734 mmHg 62%
    12:00 +8°C° 0.3 mm 5 m/s 734 mmHg 56%
    13:00 +9°C° 0.3 mm 5 m/s 733 mmHg 50%
    14:00 +8°C° 0.4 mm 5 m/s 733 mmHg 51%
    15:00 +8°C° 0.4 mm 5 m/s 733 mmHg 53%
    16:00 +7°C° 0.4 mm 5 m/s 733 mmHg 54%
    17:00 +6°C° 0.3 mm 5 m/s 733 mmHg 59%
    18:00 +5°C° 0.3 mm 5 m/s 734 mmHg 65%
    19:00 +3°C° 0.3 mm 5 m/s 734 mmHg 70%
    20:00 +3°C° 0.3 mm 5 m/s 735 mmHg 72%
    21:00 +3°C° 0.3 mm 5 m/s 736 mmHg 74%
    22:00 +2°C° 0.3 mm 5 m/s 736 mmHg 76%
    23:00 +3°C° 0 mm 4 m/s 737 mmHg 79%

    Amanhã, 26 Março, Terça-feira

    Tempo Temperatura Precipitação Vento Pressão Humidade
    00:00 +1°C° 0 mm 4 m/s 738 mmHg 81%
    01:00 +1°C° 0 mm 4 m/s 738 mmHg 84%
    02:00 0°C° 0 mm 4 m/s 739 mmHg 86%
    03:00 0°C° 0 mm 4 m/s 739 mmHg 87%
    04:00 0°C° 0 mm 4 m/s 739 mmHg 89%
    05:00 0°C° 0 mm 4 m/s 740 mmHg 87%
    06:00 0°C° 0 mm 4 m/s 741 mmHg 85%
    07:00 0°C° 0 mm 5 m/s 741 mmHg 84%
    08:00 +1°C° 0 mm 5 m/s 741 mmHg 78%
    09:00 +2°C° 0 mm 5 m/s 742 mmHg 73%
    10:00 +2°C° 0 mm 6 m/s 742 mmHg 68%
    11:00 +3°C° 0 mm 6 m/s 742 mmHg 64%
    12:00 +4°C° 0 mm 6 m/s 741 mmHg 60%
    13:00 +5°C° 0 mm 7 m/s 741 mmHg 57%
    14:00 +5°C° 0 mm 7 m/s 741 mmHg 54%
    15:00 +5°C° 0 mm 7 m/s 740 mmHg 52%
    16:00 +6°C° 0 mm 7 m/s 740 mmHg 50%
    17:00 +5°C° 0.1 mm 7 m/s 740 mmHg 55%
    18:00 +4°C° 0.1 mm 6 m/s 741 mmHg 59%
    19:00 +3°C° 0.1 mm 6 m/s 741 mmHg 64%
    20:00 +3°C° 0 mm 5 m/s 741 mmHg 65%
    21:00 +2°C° 0 mm 5 m/s 742 mmHg 66%
    22:00 +2°C° 0 mm 5 m/s 742 mmHg 67%
    23:00 +3°C° 0.1 mm 4 m/s 743 mmHg 69%

    Depois de amanhã, 27 Março, Quarta-feira

    Tempo Temperatura Precipitação Vento Pressão Humidade
    00:00 +3°C° 0.1 mm 4 m/s 743 mmHg 71%
    01:00 +1°C° 0.1 mm 4 m/s 744 mmHg 73%
    02:00 +1°C° 0 mm 3 m/s 744 mmHg 77%
    03:00 0°C° 0 mm 3 m/s 744 mmHg 81%
    04:00 -1°C° 0 mm 2 m/s 744 mmHg 85%
    05:00 +1°C° 0 mm 2 m/s 745 mmHg 82%
    06:00 +2°C° 0 mm 1 m/s 745 mmHg 78%
    07:00 +2°C° 0 mm 1 m/s 746 mmHg 75%
    08:00 +3°C° 0 mm 2 m/s 746 mmHg 68%
    09:00 +4°C° 0 mm 2 m/s 746 mmHg 62%
    10:00 +5°C° 0 mm 2 m/s 747 mmHg 55%
    11:00 +5°C° 0 mm 3 m/s 747 mmHg 53%
    12:00 +7°C° 0 mm 3 m/s 747 mmHg 51%
    13:00 +7°C° 0 mm 3 m/s 747 mmHg 49%
    14:00 +7°C° 0 mm 3 m/s 746 mmHg 49%
    15:00 +8°C° 0 mm 3 m/s 746 mmHg 48%
    16:00 +8°C° 0 mm 2 m/s 746 mmHg 48%
    17:00 +7°C° 0 mm 2 m/s 746 mmHg 51%
    18:00 +7°C° 0 mm 2 m/s 747 mmHg 54%
    19:00 +7°C° 0 mm 1 m/s 747 mmHg 56%
    20:00 +7°C° 0 mm 1 m/s 747 mmHg 59%
    21:00 +5°C° 0 mm 2 m/s 748 mmHg 62%
    22:00 +5°C° 0 mm 2 m/s 748 mmHg 65%
    23:00 +5°C° 0 mm 2 m/s 748 mmHg 68%

    28 Março, Quinta-feira

    Tempo Temperatura Precipitação Vento Pressão Humidade
    00:00 +5°C° 0 mm 2 m/s 748 mmHg 71%
    01:00 +5°C° 0 mm 1 m/s 748 mmHg 74%
    02:00 +5°C° 0.1 mm 1 m/s 748 mmHg 76%
    03:00 +5°C° 0.1 mm 1 m/s 749 mmHg 79%
    04:00 +5°C° 0.1 mm 1 m/s 749 mmHg 81%
    05:00 +6°C° 0 mm 1 m/s 749 mmHg 81%
    06:00 +6°C° 0 mm 1 m/s 749 mmHg 81%
    07:00 +6°C° 0 mm 1 m/s 749 mmHg 81%
    08:00 +7°C° 0 mm 1 m/s 749 mmHg 74%
    09:00 +9°C° 0 mm 1 m/s 750 mmHg 68%
    10:00 +10°C° 0 mm 1 m/s 750 mmHg 61%
    11:00 +9°C° 0 mm 0 m/s 750 mmHg 58%
    12:00 +10°C° 0 mm 0 m/s 750 mmHg 55%
    13:00 +10°C° 0 mm 0 m/s 750 mmHg 52%
    14:00 +12°C° 0 mm 1 m/s 749 mmHg 51%
    15:00 +12°C° 0 mm 1 m/s 749 mmHg 50%
    16:00 +12°C° 0 mm 1 m/s 749 mmHg 49%
    17:00 +11°C° 0 mm 1 m/s 749 mmHg 54%
    18:00 +10°C° 0 mm 1 m/s 749 mmHg 59%
    19:00 +8°C° 0 mm 1 m/s 750 mmHg 64%
    20:00 +8°C° 0 mm 1 m/s 750 mmHg 67%
    21:00 +7°C° 0 mm 1 m/s 750 mmHg 70%
    22:00 +7°C° 0 mm 1 m/s 751 mmHg 74%
    23:00 +6°C° 0 mm 1 m/s 751 mmHg 76%

    29 Março, Sexta-feira

    Tempo Temperatura Precipitação Vento Pressão Humidade
    00:00 +6°C° 0 mm 1 m/s 751 mmHg 78%
    01:00 +5°C° 0 mm 1 m/s 751 mmHg 80%
    02:00 +4°C° 0 mm 0 m/s 751 mmHg 82%
    03:00 +4°C° 0 mm 0 m/s 751 mmHg 83%
    04:00 +3°C° 0 mm 0 m/s 751 mmHg 85%
    05:00 +4°C° 0 mm 0 m/s 751 mmHg 81%
    06:00 +5°C° 0 mm 0 m/s 751 mmHg 78%
    07:00 +6°C° 0 mm 1 m/s 751 mmHg 75%
    08:00 +8°C° 0 mm 1 m/s 751 mmHg 68%
    09:00 +10°C° 0 mm 1 m/s 751 mmHg 60%
    10:00 +10°C° 0 mm 2 m/s 751 mmHg 53%
    11:00 +12°C° 0 mm 2 m/s 750 mmHg 49%
    12:00 +13°C° 0 mm 1 m/s 750 mmHg 46%
    13:00 +14°C° 0 mm 1 m/s 750 mmHg 42%
    14:00 +14°C° 0 mm 1 m/s 749 mmHg 42%
    15:00 +14°C° 0 mm 1 m/s 749 mmHg 41%
    16:00 +14°C° 0 mm 1 m/s 748 mmHg 41%
    17:00 +13°C° 0 mm 1 m/s 748 mmHg 46%
    18:00 +11°C° 0 mm 1 m/s 748 mmHg 50%
    19:00 +10°C° 0 mm 1 m/s 748 mmHg 55%
    20:00 +9°C° 0 mm 1 m/s 748 mmHg 58%
    21:00 +9°C° 0 mm 1 m/s 748 mmHg 60%
    22:00 +8°C° 0 mm 1 m/s 748 mmHg 62%
    23:00 +7°C° 0 mm 1 m/s 748 mmHg 64%

    30 Março, Sábado

    Tempo Temperatura Precipitação Vento Pressão Humidade
    00:00 +7°C° 0 mm 1 m/s 748 mmHg 66%
    01:00 +7°C° 0 mm 1 m/s 748 mmHg 68%
    02:00 +6°C° 0 mm 1 m/s 747 mmHg 70%
    03:00 +6°C° 0 mm 1 m/s 747 mmHg 71%
    04:00 +6°C° 0 mm 1 m/s 747 mmHg 72%
    05:00 +6°C° 0 mm 1 m/s 747 mmHg 71%
    06:00 +7°C° 0 mm 1 m/s 747 mmHg 69%
    07:00 +7°C° 0 mm 1 m/s 747 mmHg 67%
    08:00 +9°C° 0 mm 1 m/s 747 mmHg 60%
    09:00 +11°C° 0 mm 1 m/s 746 mmHg 54%
    10:00 +13°C° 0 mm 2 m/s 746 mmHg 47%
    11:00 +14°C° 0 mm 2 m/s 746 mmHg 43%
    12:00 +14°C° 0 mm 2 m/s 745 mmHg 40%
    13:00 +15°C° 0 mm 2 m/s 744 mmHg 37%
    14:00 +15°C° 0 mm 2 m/s 744 mmHg 36%
    15:00 +15°C° 0 mm 2 m/s 743 mmHg 36%
    16:00 +16°C° 0 mm 2 m/s 743 mmHg 35%
    17:00 +14°C° 0 mm 2 m/s 742 mmHg 40%
    18:00 +12°C° 0 mm 2 m/s 742 mmHg 44%
    19:00 +11°C° 0 mm 1 m/s 742 mmHg 48%
    20:00 +10°C° 0 mm 1 m/s 742 mmHg 52%
    21:00 +10°C° 0 mm 1 m/s 742 mmHg 56%
    22:00 +8°C° 0 mm 2 m/s 742 mmHg 60%
    23:00 +8°C° 0 mm 2 m/s 742 mmHg 61%
    Mostrar mais